Location: Ottawa
(45.4167°N, 75.7000°W)
Time: 08:35:22
(UTC-04:00)

Envisat - Pass Details

Date: 13 October 2017
Orbit: 764 x 766 km, 98.2° (Epoch: 20 October)

Event Time Altitude Azimuth Distance (km) Brightness Sun altitude
Exits shadow 19:16:46 14° 84° (E) 2,041 4.5 -10.7°
Maximum altitude 19:18:37 17° 59° (ENE) 1,885 4.5 -11.0°
Drops below altitude 10° 19:21:45 10° 21° (NNE) 2,312 5.3 -11.5°
Sets 19:24:49 0° 1° (N) 3,243 6.2 -12.1°
